Time,TemperatureF,DewpointF,PressureIn,WindDirection,WindDirectionDegrees,WindSpeedMPH,WindSpeedGustMPH,Humidity,HourlyPrecipIn,Conditions,Clouds,dailyrainin,SoftwareType,DateUTC
2013-06-17 00:02:00,58.8,39.7,29.94,SSW,195,0.0,0.0,49,0.00,,---,0.00,VWS V13.00,2013-06-17 08:02:00,
2013-06-17 00:07:00,58.5,40.9,29.94,SSW,195,0.0,0.0,52,0.00,,---,0.00,VWS V13.00,2013-06-17 08:07:00,
2013-06-17 00:12:00,57.9,40.4,29.94,SSW,195,0.0,0.0,52,0.00,,---,0.00,VWS V13.00,2013-06-17 08:12:00,
2013-06-17 00:17:00,57.9,40.4,29.94,SSW,195,0.0,0.0,52,0.00,,---,0.00,VWS V13.00,2013-06-17 08:17:00,
2013-06-17 00:22:00,57.9,40.4,29.94,SSW,196,0.0,0.0,52,0.00,,---,0.00,VWS V13.00,2013-06-17 08:22:00,
2013-06-17 00:27:00,57.7,40.2,29.94,SSW,196,0.0,0.0,52,0.00,,---,0.00,VWS V13.00,2013-06-17 08:27:00,
2013-06-17 00:32:00,57.4,40.4,29.94,SSW,196,0.0,0.0,53,0.00,,---,0.00,VWS V13.00,2013-06-17 08:32:00,
2013-06-17 00:37:00,57.4,40.4,29.94,West,267,0.0,0.0,53,0.00,,---,0.00,VWS V13.00,2013-06-17 08:37:00,
2013-06-17 00:42:00,57.2,40.2,29.94,West,267,0.0,0.0,53,0.00,,---,0.00,VWS V13.00,2013-06-17 08:42:00,
2013-06-17 00:47:00,57.0,40.6,29.94,West,267,0.0,0.0,54,0.00,,---,0.00,VWS V13.00,2013-06-17 08:47:00,
2013-06-17 00:52:00,56.7,40.2,29.94,West,267,0.0,0.0,54,0.00,,---,0.00,VWS V13.00,2013-06-17 08:52:00,
2013-06-17 00:57:00,56.5,40.0,29.94,West,267,0.0,0.0,54,0.00,,---,0.00,VWS V13.00,2013-06-17 08:57:00,
2013-06-17 01:02:00,56.1,39.7,29.94,West,267,0.0,0.0,54,0.00,,---,0.00,VWS V13.00,2013-06-17 09:02:00,
2013-06-17 01:07:00,55.9,41.8,29.94,West,267,0.0,0.0,59,0.00,,---,0.00,VWS V13.00,2013-06-17 09:07:00,
2013-06-17 01:12:00,55.9,42.7,29.94,East,96,0.0,0.0,61,0.00,,---,0.00,VWS V13.00,2013-06-17 09:12:00,
2013-06-17 01:17:00,55.8,41.7,29.94,East,96,0.0,0.0,59,0.00,,---,0.00,VWS V13.00,2013-06-17 09:17:00,
2013-06-17 01:22:00,55.8,41.7,29.94,East,96,0.0,0.0,59,0.00,,---,0.00,VWS V13.00,2013-06-17 09:22:00,
2013-06-17 01:27:00,55.6,41.5,29.94,East,96,0.0,0.0,59,0.00,,---,0.00,VWS V13.00,2013-06-17 09:27:00,
2013-06-17 01:32:00,55.6,41.5,29.94,NE,50,0.0,0.0,59,0.00,,---,0.00,VWS V13.00,2013-06-17 09:32:00,
2013-06-17 01:37:00,55.2,41.6,29.94,NE,50,0.0,0.0,60,0.00,,---,0.00,VWS V13.00,2013-06-17 09:37:00,
2013-06-17 01:42:00,55.0,41.0,29.94,NE,50,0.0,0.0,59,0.00,,---,0.00,VWS V13.00,2013-06-17 09:42:00,
2013-06-17 01:47:00,54.9,41.2,29.94,NE,50,0.0,0.0,60,0.00,,---,0.00,VWS V13.00,2013-06-17 09:47:00,
2013-06-17 01:52:00,54.9,41.2,29.94,NE,50,0.0,0.0,60,0.00,,---,0.00,VWS V13.00,2013-06-17 09:52:00,
2013-06-17 01:57:00,54.5,40.9,29.94,NE,50,0.0,0.0,60,0.00,,---,0.00,VWS V13.00,2013-06-17 09:57:00,
2013-06-17 02:02:00,54.5,41.3,29.94,NE,50,0.0,0.0,61,0.00,,---,0.00,VWS V13.00,2013-06-17 10:02:00,
2013-06-17 02:07:00,54.3,41.2,29.94,NE,50,0.0,0.0,61,0.00,,---,0.00,VWS V13.00,2013-06-17 10:07:00,
2013-06-17 02:12:00,54.1,41.4,29.94,NE,50,0.0,0.0,62,0.00,,---,0.00,VWS V13.00,2013-06-17 10:12:00,
2013-06-17 02:17:00,54.0,41.7,29.94,NE,50,0.0,0.0,63,0.00,,---,0.00,VWS V13.00,2013-06-17 10:17:00,
2013-06-17 02:22:00,53.6,42.1,29.94,NE,50,0.0,0.0,65,0.00,,---,0.00,VWS V13.00,2013-06-17 10:22:00,
2013-06-17 02:27:00,53.6,42.1,29.94,NE,50,0.0,0.0,65,0.00,,---,0.00,VWS V13.00,2013-06-17 10:27:00,
2013-06-17 02:32:00,53.6,42.1,29.94,NE,50,0.0,0.0,65,0.00,,---,0.00,VWS V13.00,2013-06-17 10:32:00,
2013-06-17 02:37:00,53.4,42.0,29.94,NE,50,0.0,0.0,65,0.00,,---,0.00,VWS V13.00,2013-06-17 10:37:00,
2013-06-17 02:42:00,53.2,42.2,29.94,NE,50,0.0,0.0,66,0.00,,---,0.00,VWS V13.00,2013-06-17 10:42:00,
2013-06-17 02:47:00,52.9,42.2,29.94,NE,50,0.0,0.0,67,0.00,,---,0.00,VWS V13.00,2013-06-17 10:47:00,
2013-06-17 02:52:00,53.1,42.4,29.94,NE,50,0.0,0.0,67,0.00,,---,0.00,VWS V13.00,2013-06-17 10:52:00,
2013-06-17 02:57:00,52.9,42.2,29.94,NE,50,0.0,0.0,67,0.00,,---,0.00,VWS V13.00,2013-06-17 10:57:00,
2013-06-17 03:02:00,52.9,42.2,29.94,NE,50,0.0,0.0,67,0.00,,---,0.00,VWS V13.00,2013-06-17 11:02:00,
2013-06-17 03:07:00,52.9,42.2,29.94,NE,50,0.0,0.0,67,0.00,,---,0.00,VWS V13.00,2013-06-17 11:07:00,
2013-06-17 03:12:00,52.7,42.1,29.94,NE,50,0.0,0.0,67,0.00,,---,0.00,VWS V13.00,2013-06-17 11:12:00,
2013-06-17 03:17:00,52.5,41.9,29.94,NE,50,0.0,0.0,67,0.00,,---,0.00,VWS V13.00,2013-06-17 11:17:00,
2013-06-17 03:22:00,52.3,42.1,29.94,NE,50,0.0,0.0,68,0.00,,---,0.00,VWS V13.00,2013-06-17 11:22:00,
2013-06-17 03:27:00,52.3,42.1,29.94,NE,50,0.0,0.0,68,0.00,,---,0.00,VWS V13.00,2013-06-17 11:27:00,
2013-06-17 03:32:00,52.3,42.1,29.91,NE,50,0.0,0.0,68,0.00,,---,0.00,VWS V13.00,2013-06-17 11:32:00,
2013-06-17 03:37:00,52.0,42.1,29.91,NE,50,0.0,0.0,69,0.00,,---,0.00,VWS V13.00,2013-06-17 11:37:00,
2013-06-17 03:42:00,52.2,42.3,29.91,NE,50,0.0,0.0,69,0.00,,---,0.00,VWS V13.00,2013-06-17 11:42:00,
2013-06-17 03:47:00,52.2,42.3,29.91,NE,50,0.0,0.0,69,0.00,,---,0.00,VWS V13.00,2013-06-17 11:47:00,
2013-06-17 03:52:00,51.8,42.0,29.91,NE,50,0.0,0.0,69,0.00,,---,0.00,VWS V13.00,2013-06-17 11:52:00,
2013-06-17 03:57:00,51.8,42.3,29.91,NE,50,0.0,0.0,70,0.00,,---,0.00,VWS V13.00,2013-06-17 11:57:00,
2013-06-17 04:02:00,51.8,42.7,29.91,NE,50,0.0,0.0,71,0.00,,---,0.00,VWS V13.00,2013-06-17 12:02:00,
2013-06-17 04:07:00,51.8,42.3,29.91,NE,50,0.0,0.0,70,0.00,,---,0.00,VWS V13.00,2013-06-17 12:07:00,
2013-06-17 04:12:00,52.0,42.5,29.91,NE,50,0.0,0.0,70,0.00,,---,0.00,VWS V13.00,2013-06-17 12:12:00,
2013-06-17 04:17:00,51.8,42.3,29.91,NE,50,0.0,0.0,70,0.00,,---,0.00,VWS V13.00,2013-06-17 12:17:00,
2013-06-17 04:22:00,51.8,42.3,29.91,NE,50,0.0,0.0,70,0.00,,---,0.00,VWS V13.00,2013-06-17 12:22:00,
2013-06-17 04:27:00,51.6,42.2,29.91,NE,50,0.0,0.0,70,0.00,,---,0.00,VWS V13.00,2013-06-17 12:27:00,
2013-06-17 04:32:00,51.4,42.0,29.91,NE,50,0.0,0.0,70,0.00,,---,0.00,VWS V13.00,2013-06-17 12:32:00,
2013-06-17 04:37:00,51.4,42.0,29.91,NE,50,0.0,0.0,70,0.00,,---,0.00,VWS V13.00,2013-06-17 12:37:00,
2013-06-17 04:42:00,51.3,42.2,29.91,NE,50,0.0,0.0,71,0.00,,---,0.00,VWS V13.00,2013-06-17 12:42:00,
2013-06-17 04:47:00,50.9,41.8,29.91,NE,50,0.0,0.0,71,0.00,,---,0.00,VWS V13.00,2013-06-17 12:47:00,
2013-06-17 04:52:00,51.1,42.0,29.91,NE,50,0.0,0.0,71,0.00,,---,0.00,VWS V13.00,2013-06-17 12:52:00,
2013-06-17 04:57:00,50.7,41.7,29.91,NE,50,0.0,0.0,71,0.00,,---,0.00,VWS V13.00,2013-06-17 12:57:00,
2013-06-17 05:02:00,50.5,41.5,29.91,NE,50,0.0,0.0,71,0.00,,---,0.00,VWS V13.00,2013-06-17 13:02:00,
2013-06-17 05:07:00,50.4,41.3,29.91,NE,50,0.0,0.0,71,0.00,,---,0.00,VWS V13.00,2013-06-17 13:07:00,
2013-06-17 05:12:00,50.4,41.3,29.91,NE,50,0.0,0.0,71,0.00,,---,0.00,VWS V13.00,2013-06-17 13:12:00,
2013-06-17 05:17:00,50.4,41.7,29.91,NE,50,0.0,0.0,72,0.00,,---,0.00,VWS V13.00,2013-06-17 13:17:00,
2013-06-17 05:22:00,50.4,41.7,29.91,NE,50,0.0,0.0,72,0.00,,---,0.00,VWS V13.00,2013-06-17 13:22:00,
2013-06-17 05:27:00,50.5,41.9,29.91,NE,50,0.0,0.0,72,0.00,,---,0.00,VWS V13.00,2013-06-17 13:27:00,
2013-06-17 05:32:00,50.5,41.9,29.91,NE,50,0.0,0.0,72,0.00,,---,0.00,VWS V13.00,2013-06-17 13:32:00,
2013-06-17 05:37:00,50.4,41.7,29.91,NE,50,0.0,0.0,72,0.00,,---,0.00,VWS V13.00,2013-06-17 13:37:00,
2013-06-17 05:42:00,50.4,41.7,29.91,NE,50,0.0,0.0,72,0.00,,---,0.00,VWS V13.00,2013-06-17 13:42:00,
2013-06-17 05:47:00,50.2,41.5,29.91,NE,50,0.0,0.0,72,0.00,,---,0.00,VWS V13.00,2013-06-17 13:47:00,
2013-06-17 05:52:00,50.4,42.0,29.91,NE,50,0.0,0.0,73,0.00,,---,0.00,VWS V13.00,2013-06-17 13:52:00,
2013-06-17 05:57:00,50.4,42.0,29.91,NE,50,0.0,0.0,73,0.00,,---,0.00,VWS V13.00,2013-06-17 13:57:00,
2013-06-17 06:02:00,51.6,43.6,29.91,NE,50,0.0,0.0,74,0.00,,---,0.00,VWS V13.00,2013-06-17 14:02:00,
2013-06-17 06:06:00,51.8,43.4,29.91,NE,50,0.0,0.0,73,0.00,,---,0.00,VWS V13.00,2013-06-17 14:06:00,
2013-06-17 06:11:00,51.8,43.4,29.91,NE,50,0.0,0.0,73,0.00,,---,0.00,VWS V13.00,2013-06-17 14:11:00,
2013-06-17 06:16:00,51.8,43.4,29.91,NE,50,0.0,0.0,73,0.00,,---,0.00,VWS V13.00,2013-06-17 14:16:00,
2013-06-17 06:21:00,54.1,44.6,29.91,NE,50,0.0,0.0,70,0.00,,---,0.00,VWS V13.00,2013-06-17 14:21:00,
2013-06-17 06:26:00,55.6,45.6,29.91,NE,50,0.0,0.0,69,0.00,,---,0.00,VWS V13.00,2013-06-17 14:26:00,
2013-06-17 06:31:00,55.2,41.2,29.91,NE,50,0.0,0.0,59,0.00,,---,0.00,VWS V13.00,2013-06-17 14:31:00,
2013-06-17 06:36:00,55.2,41.2,29.91,NE,50,0.0,0.0,59,0.00,,---,0.00,VWS V13.00,2013-06-17 14:36:00,
2013-06-17 06:41:00,55.2,41.2,29.91,NE,50,0.0,0.0,59,0.00,,---,0.00,VWS V13.00,2013-06-17 14:41:00,
2013-06-17 06:46:00,57.2,43.9,29.91,NE,50,0.0,0.0,61,0.00,,---,0.00,VWS V13.00,2013-06-17 14:46:00,
2013-06-17 06:51:00,57.9,45.0,29.91,NE,50,0.0,0.0,62,0.00,,---,0.00,VWS V13.00,2013-06-17 14:51:00,
2013-06-17 06:56:00,58.5,43.8,29.91,NE,50,0.0,0.0,58,0.00,,---,0.00,VWS V13.00,2013-06-17 14:56:00,
2013-06-17 07:01:00,58.5,43.8,29.91,NE,50,0.0,0.0,58,0.00,,---,0.00,VWS V13.00,2013-06-17 15:01:00,
2013-06-17 07:06:00,59.4,43.2,29.91,NE,50,0.0,0.0,55,0.00,,---,0.00,VWS V13.00,2013-06-17 15:06:00,
2013-06-17 07:11:00,58.8,42.2,29.91,NE,50,0.0,0.0,54,0.00,,---,0.00,VWS V13.00,2013-06-17 15:11:00,
2013-06-17 07:16:00,58.8,42.2,29.91,NE,50,0.0,0.0,54,0.00,,---,0.00,VWS V13.00,2013-06-17 15:16:00,
2013-06-17 07:21:00,58.8,42.2,29.91,NE,50,0.0,0.0,54,0.00,,---,0.00,VWS V13.00,2013-06-17 15:21:00,
2013-06-17 07:26:00,58.8,42.7,29.91,NE,50,0.0,0.0,55,0.00,,---,0.00,VWS V13.00,2013-06-17 15:26:00,
2013-06-17 07:31:00,58.5,42.8,29.91,NE,50,0.0,0.0,56,0.00,,---,0.00,VWS V13.00,2013-06-17 15:31:00,
2013-06-17 07:36:00,58.6,43.5,29.91,ENE,57,0.0,0.0,57,0.00,,---,0.00,VWS V13.00,2013-06-17 15:36:00,
2013-06-17 07:41:00,58.3,43.1,29.91,ENE,57,0.0,0.0,57,0.00,,---,0.00,VWS V13.00,2013-06-17 15:41:00,
2013-06-17 07:46:00,58.3,43.1,29.91,SW,223,0.0,0.0,57,0.00,,---,0.00,VWS V13.00,2013-06-17 15:46:00,
2013-06-17 07:51:00,58.3,43.1,29.91,ESE,117,0.0,0.0,57,0.00,,---,0.00,VWS V13.00,2013-06-17 15:51:00,
2013-06-17 07:56:00,60.6,48.4,29.91,SSW,203,0.0,0.0,64,0.00,,---,0.00,VWS V13.00,2013-06-17 15:56:00,
2013-06-17 08:01:00,62.4,47.5,29.91,SSW,203,0.0,0.0,58,0.00,,---,0.00,VWS V13.00,2013-06-17 16:01:00,
2013-06-17 08:06:00,64.2,44.7,29.91,SSW,203,0.0,0.0,49,0.00,,---,0.00,VWS V13.00,2013-06-17 16:06:00,
2013-06-17 08:11:00,65.1,44.4,29.88,South,184,0.0,0.0,47,0.00,,---,0.00,VWS V13.00,2013-06-17 16:11:00,
2013-06-17 08:16:00,67.6,46.1,29.88,South,185,0.0,0.0,46,0.00,,---,0.00,VWS V13.00,2013-06-17 16:16:00,
2013-06-17 08:21:00,69.1,45.0,29.88,South,189,0.0,0.0,42,0.00,,---,0.00,VWS V13.00,2013-06-17 16:21:00,
2013-06-17 08:26:00,70.2,42.0,29.88,South,171,0.0,0.0,36,0.00,,---,0.00,VWS V13.00,2013-06-17 16:26:00,
2013-06-17 08:31:00,70.2,42.0,29.88,SW,221,0.0,0.0,36,0.00,,---,0.00,VWS V13.00,2013-06-17 16:31:00,
2013-06-17 08:36:00,70.2,42.0,29.88,SW,216,0.0,0.0,36,0.00,,---,0.00,VWS V13.00,2013-06-17 16:36:00,
2013-06-17 08:41:00,74.5,42.7,29.88,South,186,0.0,0.0,32,0.00,,---,0.00,VWS V13.00,2013-06-17 16:41:00,
2013-06-17 08:46:00,74.7,42.9,29.88,SW,214,0.0,0.0,32,0.00,,---,0.00,VWS V13.00,2013-06-17 16:46:00,
2013-06-17 08:51:00,75.4,42.7,29.88,SW,226,0.0,0.0,31,0.00,,---,0.00,VWS V13.00,2013-06-17 16:51:00,
2013-06-17 08:56:00,75.4,42.7,29.88,South,180,0.0,0.0,31,0.00,,---,0.00,VWS V13.00,2013-06-17 16:56:00,
2013-06-17 09:01:00,75.0,43.2,29.88,SW,220,0.0,0.0,32,0.00,,---,0.00,VWS V13.00,2013-06-17 17:01:00,
2013-06-17 09:06:00,76.5,43.6,29.88,SSW,205,0.0,0.0,31,0.00,,---,0.00,VWS V13.00,2013-06-17 17:06:00,
2013-06-17 09:11:00,77.0,43.2,29.88,SSW,211,0.0,0.0,30,0.00,,---,0.00,VWS V13.00,2013-06-17 17:11:00,
2013-06-17 09:16:00,77.0,43.2,29.88,SSW,197,0.0,0.0,30,0.00,,---,0.00,VWS V13.00,2013-06-17 17:16:00,
2013-06-17 09:21:00,77.5,43.7,29.88,South,183,0.0,0.0,30,0.00,,---,0.00,VWS V13.00,2013-06-17 17:21:00,
2013-06-17 09:26:00,77.5,43.7,29.88,ESE,111,0.0,0.0,30,0.00,,---,0.00,VWS V13.00,2013-06-17 17:26:00,
2013-06-17 09:31:00,77.4,41.7,29.88,SW,215,0.0,0.0,28,0.00,,---,0.00,VWS V13.00,2013-06-17 17:31:00,
2013-06-17 09:36:00,78.4,41.7,29.88,SSW,208,0.0,0.0,27,0.00,,---,0.00,VWS V13.00,2013-06-17 17:36:00,
2013-06-17 09:41:00,78.4,41.7,29.88,SSW,192,0.0,0.0,27,0.00,,---,0.00,VWS V13.00,2013-06-17 17:41:00,
2013-06-17 09:46:00,80.1,39.0,29.88,SSW,195,0.0,0.0,23,0.00,,---,0.00,VWS V13.00,2013-06-17 17:46:00,
2013-06-17 09:51:00,80.1,39.0,29.88,SSW,201,0.0,0.0,23,0.00,,---,0.00,VWS V13.00,2013-06-17 17:51:00,
2013-06-17 09:56:00,78.4,36.5,29.88,SSW,200,0.0,0.0,22,0.00,,---,0.00,VWS V13.00,2013-06-17 17:56:00,
2013-06-17 10:01:00,78.4,36.5,29.88,South,173,0.0,0.0,22,0.00,,---,0.00,VWS V13.00,2013-06-17 18:01:00,
2013-06-17 10:06:00,78.6,37.8,29.88,South,189,0.0,0.0,23,0.00,,---,0.00,VWS V13.00,2013-06-17 18:06:00,
2013-06-17 10:11:00,78.6,37.8,29.88,South,169,0.0,0.0,23,0.00,,---,0.00,VWS V13.00,2013-06-17 18:11:00,
2013-06-17 10:16:00,78.6,37.8,29.88,SSW,211,0.0,0.0,23,0.00,,---,0.00,VWS V13.00,2013-06-17 18:16:00,
2013-06-17 10:21:00,79.7,38.7,29.88,WSW,244,0.0,0.0,23,0.00,,---,0.00,VWS V13.00,2013-06-17 18:21:00,
2013-06-17 10:26:00,80.1,39.0,29.88,SSE,156,0.0,0.0,23,0.00,,---,0.00,VWS V13.00,2013-06-17 18:26:00,
2013-06-17 10:31:00,80.1,39.0,29.88,South,187,0.0,0.0,23,0.00,,---,0.00,VWS V13.00,2013-06-17 18:31:00,
2013-06-17 10:36:00,80.1,39.0,29.88,SSE,163,0.0,0.0,23,0.00,,---,0.00,VWS V13.00,2013-06-17 18:36:00,
2013-06-17 10:41:00,79.3,36.0,29.88,ESE,104,0.0,0.0,21,0.00,,---,0.00,VWS V13.00,2013-06-17 18:41:00,
2013-06-17 10:46:00,79.0,35.8,29.88,SSW,195,0.0,0.0,21,0.00,,---,0.00,VWS V13.00,2013-06-17 18:46:00,
2013-06-17 10:51:00,79.0,35.8,29.88,South,181,0.0,0.0,21,0.00,,---,0.00,VWS V13.00,2013-06-17 18:51:00,
2013-06-17 10:56:00,79.0,35.8,29.88,South,188,0.0,0.0,21,0.00,,---,0.00,VWS V13.00,2013-06-17 18:56:00,
2013-06-17 11:01:00,80.4,37.0,29.88,SW,214,0.0,0.0,21,0.00,,---,0.00,VWS V13.00,2013-06-17 19:01:00,
2013-06-17 11:06:00,81.5,36.6,29.88,SSW,212,0.0,0.0,20,0.00,,---,0.00,VWS V13.00,2013-06-17 19:06:00,
2013-06-17 11:11:00,81.7,38.0,29.88,SSW,202,0.0,0.0,21,0.00,,---,0.00,VWS V13.00,2013-06-17 19:11:00,
2013-06-17 11:16:00,82.6,37.5,29.88,SW,224,0.0,0.0,20,0.00,,---,0.00,VWS V13.00,2013-06-17 19:16:00,
2013-06-17 11:21:00,82.6,37.5,29.88,SW,224,0.0,0.0,20,0.00,,---,0.00,VWS V13.00,2013-06-17 19:21:00,
2013-06-17 11:26:00,86.4,39.3,29.88,SW,222,0.0,0.0,19,0.00,,---,0.00,VWS V13.00,2013-06-17 19:26:00,
2013-06-17 11:31:00,86.7,39.6,29.88,SW,216,0.0,0.0,19,0.00,,---,0.00,VWS V13.00,2013-06-17 19:31:00,
2013-06-17 11:36:00,86.5,39.4,29.85,SSW,211,0.0,0.0,19,0.00,,---,0.00,VWS V13.00,2013-06-17 19:36:00,
2013-06-17 11:41:00,86.5,39.4,29.85,South,170,0.0,0.0,19,0.00,,---,0.00,VWS V13.00,2013-06-17 19:41:00,
2013-06-17 11:46:00,86.0,37.6,29.85,SSW,202,0.0,0.0,18,0.00,,---,0.00,VWS V13.00,2013-06-17 19:46:00,
2013-06-17 11:51:00,84.9,39.4,29.85,SW,217,0.0,0.0,20,0.00,,---,0.00,VWS V13.00,2013-06-17 19:51:00,
2013-06-17 11:56:00,86.5,39.4,29.85,South,184,0.0,0.0,19,0.00,,---,0.00,VWS V13.00,2013-06-17 19:56:00,
2013-06-17 12:01:00,85.5,38.5,29.88,South,176,0.0,0.0,19,0.00,,---,0.00,VWS V13.00,2013-06-17 20:01:00,
2013-06-17 12:06:00,85.5,38.5,29.85,SW,220,0.0,0.0,19,0.00,,---,0.00,VWS V13.00,2013-06-17 20:06:00,
2013-06-17 12:11:00,85.5,38.5,29.85,WSW,237,0.0,0.0,19,0.00,,---,0.00,VWS V13.00,2013-06-17 20:11:00,
2013-06-17 12:16:00,90.3,41.1,29.85,SW,221,0.0,0.0,18,0.00,,---,0.00,VWS V13.00,2013-06-17 20:16:00,
2013-06-17 12:21:00,90.5,41.3,29.85,SSW,206,0.0,0.0,18,0.00,,---,0.00,VWS V13.00,2013-06-17 20:21:00,
2013-06-17 12:41:00,92.3,36.3,29.85,SSW,210,0.0,0.0,14,0.00,,---,0.00,VWS V13.00,2013-06-17 20:41:00,
2013-06-17 12:46:00,91.2,31.6,29.85,SSW,197,0.0,0.0,12,0.00,,---,0.00,VWS V13.00,2013-06-17 20:46:00,
2013-06-17 12:51:00,91.2,31.6,29.85,SW,219,0.0,0.0,12,0.00,,---,0.00,VWS V13.00,2013-06-17 20:51:00,
2013-06-17 12:56:00,91.2,31.6,29.85,SW,216,0.0,0.0,12,0.00,,---,0.00,VWS V13.00,2013-06-17 20:56:00,
2013-06-17 13:01:00,91.2,31.6,29.85,SSW,192,0.0,0.0,12,0.00,,---,0.00,VWS V13.00,2013-06-17 21:01:00,
2013-06-17 13:06:00,89.2,25.6,29.85,SW,225,0.0,0.0,10,0.00,,---,0.00,VWS V13.00,2013-06-17 21:06:00,
2013-06-17 13:11:00,88.7,25.2,29.85,SW,216,0.0,0.0,10,0.00,,---,0.00,VWS V13.00,2013-06-17 21:11:00,
2013-06-17 13:16:00,87.1,26.3,29.85,WSW,258,0.0,0.0,11,0.00,,---,0.00,VWS V13.00,2013-06-17 21:16:00,
2013-06-17 13:21:00,87.1,26.3,29.85,SSW,210,0.0,0.0,11,0.00,,---,0.00,VWS V13.00,2013-06-17 21:21:00,
2013-06-17 13:26:00,90.5,36.6,29.85,SSW,203,0.0,0.0,15,0.00,,---,0.00,VWS V13.00,2013-06-17 21:26:00,
2013-06-17 13:31:00,90.7,31.2,29.85,SSW,198,0.0,0.0,12,0.00,,---,0.00,VWS V13.00,2013-06-17 21:31:00,
2013-06-17 13:36:00,90.1,26.3,29.85,SSW,192,0.0,0.0,10,0.00,,---,0.00,VWS V13.00,2013-06-17 21:36:00,
2013-06-17 13:41:00,90.9,36.9,29.85,SW,226,0.0,0.0,15,0.00,,---,0.00,VWS V13.00,2013-06-17 21:41:00,
2013-06-17 13:46:00,90.9,36.9,29.85,SSW,213,0.0,0.0,15,0.00,,---,0.00,VWS V13.00,2013-06-17 21:46:00,
2013-06-17 13:51:00,92.3,41.2,29.85,South,180,0.0,0.0,17,0.00,,---,0.00,VWS V13.00,2013-06-17 21:51:00,
2013-06-17 13:56:00,90.5,26.6,29.85,SSW,209,0.0,0.0,10,0.00,,---,0.00,VWS V13.00,2013-06-17 21:56:00,
2013-06-17 14:01:00,90.5,41.3,29.85,SSW,203,0.0,0.0,18,0.00,,---,0.00,VWS V13.00,2013-06-17 22:01:00,
2013-06-17 14:06:00,90.5,41.3,29.85,South,187,0.0,0.0,18,0.00,,---,0.00,VWS V13.00,2013-06-17 22:06:00,
2013-06-17 14:11:00,92.8,25.8,29.85,SW,225,0.0,0.0,9,0.00,,---,0.00,VWS V13.00,2013-06-17 22:11:00,
2013-06-17 14:16:00,91.9,25.1,29.85,SW,229,0.0,0.0,9,0.00,,---,0.00,VWS V13.00,2013-06-17 22:16:00,
2013-06-17 14:21:00,92.8,32.8,29.85,South,178,0.0,0.0,12,0.00,,---,0.00,VWS V13.00,2013-06-17 22:21:00,
2013-06-17 14:26:00,92.8,32.8,29.85,SW,231,0.0,0.0,12,0.00,,---,0.00,VWS V13.00,2013-06-17 22:26:00,
2013-06-17 14:31:00,92.8,32.8,29.85,SW,227,0.0,0.0,12,0.00,,---,0.00,VWS V13.00,2013-06-17 22:31:00,
2013-06-17 14:36:00,91.9,32.1,29.85,SSW,212,0.0,0.0,12,0.00,,---,0.00,VWS V13.00,2013-06-17 22:36:00,
2013-06-17 14:41:00,92.3,25.4,29.85,SW,224,0.0,0.0,9,0.00,,---,0.00,VWS V13.00,2013-06-17 22:41:00,
2013-06-17 14:46:00,90.5,26.6,29.85,SSW,211,0.0,0.0,10,0.00,,---,0.00,VWS V13.00,2013-06-17 22:46:00,
2013-06-17 14:51:00,90.5,26.6,29.83,South,184,0.0,0.0,10,0.00,,---,0.00,VWS V13.00,2013-06-17 22:51:00,
2013-06-17 14:56:00,92.5,25.5,29.83,SSW,197,0.0,0.0,9,0.00,,---,0.00,VWS V13.00,2013-06-17 22:56:00,
2013-06-17 15:01:00,87.8,24.5,29.83,South,182,0.0,0.0,10,0.00,,---,0.00,VWS V13.00,2013-06-17 23:01:00,
2013-06-17 15:06:00,89.4,35.7,29.83,SSW,206,0.0,0.0,15,0.00,,---,0.00,VWS V13.00,2013-06-17 23:06:00,
2013-06-17 15:11:00,89.4,35.7,29.83,SW,229,0.0,0.0,15,0.00,,---,0.00,VWS V13.00,2013-06-17 23:11:00,
2013-06-17 15:16:00,89.4,35.7,29.83,SW,218,0.0,0.0,15,0.00,,---,0.00,VWS V13.00,2013-06-17 23:16:00,
2013-06-17 15:21:00,90.5,36.6,29.83,SW,228,0.0,0.0,15,0.00,,---,0.00,VWS V13.00,2013-06-17 23:21:00,
2013-06-17 15:26:00,90.9,31.3,29.83,South,189,0.0,0.0,12,0.00,,---,0.00,VWS V13.00,2013-06-17 23:26:00,
2013-06-17 15:31:00,90.9,31.3,29.83,WSW,248,0.0,0.0,12,0.00,,---,0.00,VWS V13.00,2013-06-17 23:31:00,
2013-06-17 15:36:00,88.5,31.5,29.83,South,179,0.0,0.0,13,0.00,,---,0.00,VWS V13.00,2013-06-17 23:36:00,
2013-06-17 15:41:00,88.2,39.4,29.83,SSW,208,0.0,0.0,18,0.00,,---,0.00,VWS V13.00,2013-06-17 23:41:00,
2013-06-17 15:46:00,88.2,39.4,29.83,SSW,194,0.0,0.0,18,0.00,,---,0.00,VWS V13.00,2013-06-17 23:46:00,
2013-06-17 15:51:00,89.1,25.5,29.83,WSW,240,0.0,0.0,10,0.00,,---,0.00,VWS V13.00,2013-06-17 23:51:00,
2013-06-17 15:56:00,88.5,31.5,29.83,SW,222,0.0,0.0,13,0.00,,---,0.00,VWS V13.00,2013-06-17 23:56:00,
2013-06-17 16:01:00,89.2,32.0,29.83,SSW,209,0.0,0.0,13,0.00,,---,0.00,VWS V13.00,2013-06-18 00:01:00,
2013-06-17 16:06:00,89.2,32.0,29.83,WSW,249,0.0,0.0,13,0.00,,---,0.00,VWS V13.00,2013-06-18 00:06:00,
2013-06-17 16:11:00,87.1,26.3,29.83,SSW,193,0.0,0.0,11,0.00,,---,0.00,VWS V13.00,2013-06-18 00:11:00,
2013-06-17 16:16:00,86.0,29.5,29.83,SSW,196,0.0,0.0,13,0.00,,---,0.00,VWS V13.00,2013-06-18 00:16:00,
2013-06-17 16:21:00,86.0,29.5,29.83,South,184,0.0,0.0,13,0.00,,---,0.00,VWS V13.00,2013-06-18 00:21:00,
2013-06-17 16:26:00,83.7,29.5,29.83,South,169,0.0,0.0,14,0.00,,---,0.00,VWS V13.00,2013-06-18 00:26:00,
2013-06-17 16:31:00,83.7,23.6,29.83,SSW,208,0.0,0.0,11,0.00,,---,0.00,VWS V13.00,2013-06-18 00:31:00,
2013-06-17 16:36:00,83.1,23.2,29.83,WSW,239,0.0,0.0,11,0.00,,---,0.00,VWS V13.00,2013-06-18 00:36:00,
2013-06-17 16:41:00,83.3,29.2,29.83,SSE,168,0.0,0.0,14,0.00,,---,0.00,VWS V13.00,2013-06-18 00:41:00,
2013-06-17 16:46:00,82.8,23.0,29.80,WSW,241,0.0,0.0,11,0.00,,---,0.00,VWS V13.00,2013-06-18 00:46:00,
2013-06-17 16:51:00,82.8,23.0,29.80,SSW,199,0.0,0.0,11,0.00,,---,0.00,VWS V13.00,2013-06-18 00:51:00,
2013-06-17 16:56:00,82.8,23.0,29.80,WSW,252,0.0,0.0,11,0.00,,---,0.00,VWS V13.00,2013-06-18 00:56:00,
2013-06-17 17:01:00,86.9,26.1,29.80,SSE,157,0.0,0.0,11,0.00,,---,0.00,VWS V13.00,2013-06-18 01:01:00,
2013-06-17 17:06:00,86.9,26.1,29.80,SSE,152,0.0,0.0,11,0.00,,---,0.00,VWS V13.00,2013-06-18 01:06:00,
2013-06-17 17:11:00,86.9,26.1,29.80,South,185,0.0,0.0,11,0.00,,---,0.00,VWS V13.00,2013-06-18 01:11:00,
2013-06-17 17:16:00,84.6,24.3,29.80,SSW,202,0.0,0.0,11,0.00,,---,0.00,VWS V13.00,2013-06-18 01:16:00,
2013-06-17 17:21:00,83.1,29.0,29.80,SW,222,0.0,0.0,14,0.00,,---,0.00,VWS V13.00,2013-06-18 01:21:00,
2013-06-17 17:26:00,82.0,24.5,29.80,South,174,0.0,0.0,12,0.00,,---,0.00,VWS V13.00,2013-06-18 01:26:00,
2013-06-17 17:31:00,81.7,24.2,29.80,SSW,196,0.0,0.0,12,0.00,,---,0.00,VWS V13.00,2013-06-18 01:31:00,
2013-06-17 17:36:00,81.1,23.8,29.80,SSW,198,0.0,0.0,12,0.00,,---,0.00,VWS V13.00,2013-06-18 01:36:00,
2013-06-17 17:41:00,80.2,28.4,29.80,SSW,198,0.0,0.0,15,0.00,,---,0.00,VWS V13.00,2013-06-18 01:41:00,
2013-06-17 17:46:00,79.9,22.8,29.80,SSW,208,0.0,0.0,12,0.00,,---,0.00,VWS V13.00,2013-06-18 01:46:00,
2013-06-17 17:51:00,79.9,28.1,29.80,SSW,203,0.0,0.0,15,0.00,,---,0.00,VWS V13.00,2013-06-18 01:51:00,
2013-06-17 17:56:00,81.5,27.8,29.80,SSE,162,0.0,0.0,14,0.00,,---,0.00,VWS V13.00,2013-06-18 01:56:00,
2013-06-17 18:16:00,80.2,23.1,29.77,East,95,0.0,0.0,12,0.00,,---,0.00,VWS V13.00,2013-06-18 02:16:00,
2013-06-17 18:22:00,80.2,28.4,29.77,WNW,290,0.0,0.0,15,0.00,,---,0.00,VWS V13.00,2013-06-18 02:22:00,
2013-06-17 18:27:00,80.1,22.9,29.77,NNE,18,0.0,0.0,12,0.00,,---,0.00,VWS V13.00,2013-06-18 02:27:00,
2013-06-17 18:32:00,80.2,28.4,29.77,NNE,20,0.0,0.0,15,0.00,,---,0.00,VWS V13.00,2013-06-18 02:32:00,
2013-06-17 18:37:00,79.9,22.8,29.77,East,82,0.0,0.0,12,0.00,,---,0.00,VWS V13.00,2013-06-18 02:37:00,
2013-06-17 18:42:00,79.3,22.4,29.77,East,91,0.0,0.0,12,0.00,,---,0.00,VWS V13.00,2013-06-18 02:42:00,
2013-06-17 18:47:00,79.0,22.1,29.77,NNW,345,0.0,0.0,12,0.00,,---,0.00,VWS V13.00,2013-06-18 02:47:00,
2013-06-17 18:52:00,79.2,27.6,29.77,SSE,168,0.0,0.0,15,0.00,,---,0.00,VWS V13.00,2013-06-18 02:52:00,
2013-06-17 18:57:00,79.9,28.1,29.77,NNW,338,0.0,0.0,15,0.00,,---,0.00,VWS V13.00,2013-06-18 02:57:00,
2013-06-17 19:02:00,79.7,22.6,29.77,NNW,340,0.0,0.0,12,0.00,,---,0.00,VWS V13.00,2013-06-18 03:02:00,
2013-06-17 19:07:00,79.7,28.0,29.77,NW,314,0.0,0.0,15,0.00,,---,0.00,VWS V13.00,2013-06-18 03:07:00,
2013-06-17 19:12:00,79.3,22.4,29.77,South,177,0.0,0.0,12,0.00,,---,0.00,VWS V13.00,2013-06-18 03:12:00,
2013-06-17 19:17:00,79.0,22.1,29.77,NNW,329,0.0,0.0,12,0.00,,---,0.00,VWS V13.00,2013-06-18 03:17:00,
2013-06-17 19:22:00,78.6,23.7,29.77,SSW,211,0.0,0.0,13,0.00,,---,0.00,VWS V13.00,2013-06-18 03:22:00,
2013-06-17 19:27:00,77.9,23.1,29.77,East,94,0.0,0.0,13,0.00,,---,0.00,VWS V13.00,2013-06-18 03:27:00,
2013-06-17 19:32:00,77.4,22.7,29.77,ESE,115,0.0,0.0,13,0.00,,---,0.00,VWS V13.00,2013-06-18 03:32:00,
2013-06-17 19:37:00,77.5,26.3,29.74,NW,312,0.0,0.0,15,0.00,,---,0.00,VWS V13.00,2013-06-18 03:37:00,
2013-06-17 19:42:00,77.9,23.1,29.74,East,85,0.0,0.0,13,0.00,,---,0.00,VWS V13.00,2013-06-18 03:42:00,
2013-06-17 19:47:00,77.4,22.7,29.74,SSW,194,0.0,0.0,13,0.00,,---,0.00,VWS V13.00,2013-06-18 03:47:00,
2013-06-17 19:52:00,77.2,26.0,29.74,West,262,0.0,0.0,15,0.00,,---,0.00,VWS V13.00,2013-06-18 03:52:00,
2013-06-17 19:57:00,77.4,26.1,29.74,SSW,200,0.0,0.0,15,0.00,,---,0.00,VWS V13.00,2013-06-18 03:57:00,
2013-06-17 20:01:00,77.2,30.4,29.74,WSW,249,0.0,0.0,18,0.00,,---,0.00,VWS V13.00,2013-06-18 04:01:00,
2013-06-17 20:06:00,76.8,25.7,29.74,North,353,0.0,0.0,15,0.00,,---,0.00,VWS V13.00,2013-06-18 04:06:00,
2013-06-17 20:11:00,76.3,25.3,29.74,ESE,118,0.0,0.0,15,0.00,,---,0.00,VWS V13.00,2013-06-18 04:11:00,
2013-06-17 20:16:00,76.1,25.1,29.74,SW,230,0.0,0.0,15,0.00,,---,0.00,VWS V13.00,2013-06-18 04:16:00,
2013-06-17 20:21:00,76.1,25.1,29.74,SSW,206,0.0,0.0,15,0.00,,---,0.00,VWS V13.00,2013-06-18 04:21:00,
2013-06-17 20:26:00,75.9,25.0,29.74,SE,136,0.0,0.0,15,0.00,,---,0.00,VWS V13.00,2013-06-18 04:26:00,
2013-06-17 20:31:00,75.9,25.0,29.74,WSW,241,0.0,0.0,15,0.00,,---,0.00,VWS V13.00,2013-06-18 04:31:00,
2013-06-17 20:36:00,75.7,29.3,29.74,WSW,249,0.0,0.0,18,0.00,,---,0.00,VWS V13.00,2013-06-18 04:36:00,
2013-06-17 20:41:00,75.6,29.1,29.74,WSW,249,0.0,0.0,18,0.00,,---,0.00,VWS V13.00,2013-06-18 04:41:00,
2013-06-17 20:46:00,75.0,32.5,29.74,SSE,165,0.0,0.0,21,0.00,,---,0.00,VWS V13.00,2013-06-18 04:46:00,
2013-06-17 20:51:00,74.8,32.3,29.74,WSW,237,0.0,0.0,21,0.00,,---,0.00,VWS V13.00,2013-06-18 04:51:00,
2013-06-17 20:56:00,74.7,28.4,29.74,NNW,339,0.0,0.0,18,0.00,,---,0.00,VWS V13.00,2013-06-18 04:56:00,
2013-06-17 21:01:00,74.3,31.9,29.74,West,263,0.0,0.0,21,0.00,,---,0.00,VWS V13.00,2013-06-18 05:01:00,
2013-06-17 21:06:00,74.1,31.7,29.71,West,262,0.0,0.0,21,0.00,,---,0.00,VWS V13.00,2013-06-18 05:06:00,
2013-06-17 21:11:00,73.8,31.4,29.71,WSW,244,0.0,0.0,21,0.00,,---,0.00,VWS V13.00,2013-06-18 05:11:00,
2013-06-17 21:16:00,73.2,32.1,29.71,WNW,299,0.0,0.0,22,0.00,,---,0.00,VWS V13.00,2013-06-18 05:16:00,
2013-06-17 21:21:00,72.7,31.7,29.71,WSW,241,0.0,0.0,22,0.00,,---,0.00,VWS V13.00,2013-06-18 05:21:00,
2013-06-17 21:26:00,72.0,31.1,29.71,NNE,22,0.0,0.0,22,0.00,,---,0.00,VWS V13.00,2013-06-18 05:26:00,
2013-06-17 21:31:00,71.4,32.8,29.71,North,357,0.0,0.0,24,0.00,,---,0.00,VWS V13.00,2013-06-18 05:31:00,
2013-06-17 21:36:00,70.7,33.2,29.71,North,357,0.0,0.0,25,0.00,,---,0.00,VWS V13.00,2013-06-18 05:36:00,
2013-06-17 21:41:00,70.2,32.7,29.71,North,357,0.0,0.0,25,0.00,,---,0.00,VWS V13.00,2013-06-18 05:41:00,
2013-06-17 21:46:00,69.6,36.0,29.71,North,357,0.0,0.0,29,0.00,,---,0.00,VWS V13.00,2013-06-18 05:46:00,
2013-06-17 21:51:00,69.1,36.4,29.71,North,357,0.0,0.0,30,0.00,,---,0.00,VWS V13.00,2013-06-18 05:51:00,
2013-06-17 21:56:00,68.5,37.5,29.71,North,357,0.0,0.0,32,0.00,,---,0.00,VWS V13.00,2013-06-18 05:56:00,
2013-06-17 22:01:00,68.0,37.1,29.71,North,357,0.0,0.0,32,0.00,,---,0.00,VWS V13.00,2013-06-18 06:01:00,
2013-06-17 22:06:00,67.8,37.7,29.71,North,357,0.0,0.0,33,0.00,,---,0.00,VWS V13.00,2013-06-18 06:06:00,
2013-06-17 22:11:00,67.3,37.2,29.71,NE,43,0.0,0.0,33,0.00,,---,0.00,VWS V13.00,2013-06-18 06:11:00,
2013-06-17 22:16:00,67.1,37.8,29.71,NE,43,0.0,0.0,34,0.00,,---,0.00,VWS V13.00,2013-06-18 06:16:00,
2013-06-17 22:21:00,66.9,37.7,29.71,NE,43,0.0,0.0,34,0.00,,---,0.00,VWS V13.00,2013-06-18 06:21:00,
2013-06-17 22:26:00,66.4,37.2,29.71,North,0,0.0,0.0,34,0.00,,---,0.00,VWS V13.00,2013-06-18 06:26:00,
2013-06-17 22:31:00,66.4,37.2,29.71,North,0,0.0,0.0,34,0.00,,---,0.00,VWS V13.00,2013-06-18 06:31:00,
2013-06-17 22:36:00,66.0,37.6,29.71,North,0,0.0,0.0,35,0.00,,---,0.00,VWS V13.00,2013-06-18 06:36:00,
2013-06-17 22:41:00,65.7,38.0,29.71,North,0,0.0,0.0,36,0.00,,---,0.00,VWS V13.00,2013-06-18 06:41:00,
2013-06-17 22:46:00,65.7,38.0,29.71,North,0,0.0,0.0,36,0.00,,---,0.00,VWS V13.00,2013-06-18 06:46:00,
2013-06-17 22:51:00,65.5,37.8,29.71,North,0,0.0,0.0,36,0.00,,---,0.00,VWS V13.00,2013-06-18 06:51:00,
2013-06-17 22:56:00,64.9,38.1,29.71,North,0,0.0,0.0,37,0.00,,---,0.00,VWS V13.00,2013-06-18 06:56:00,
2013-06-17 23:01:00,64.6,37.8,29.71,North,0,0.0,0.0,37,0.00,,---,0.00,VWS V13.00,2013-06-18 07:01:00,
2013-06-17 23:06:00,64.4,38.3,29.71,North,0,0.0,0.0,38,0.00,,---,0.00,VWS V13.00,2013-06-18 07:06:00,
2013-06-17 23:11:00,63.9,37.8,29.71,ENE,59,0.0,0.0,38,0.00,,---,0.00,VWS V13.00,2013-06-18 07:11:00,
2013-06-17 23:16:00,63.5,37.5,29.68,North,6,0.0,0.0,38,0.00,,---,0.00,VWS V13.00,2013-06-18 07:16:00,
2013-06-17 23:21:00,63.7,38.3,29.68,East,82,0.0,0.0,39,0.00,,---,0.00,VWS V13.00,2013-06-18 07:21:00,
2013-06-17 23:26:00,63.3,38.6,29.68,East,82,0.0,0.0,40,0.00,,---,0.00,VWS V13.00,2013-06-18 07:26:00,
2013-06-17 23:31:00,63.0,38.3,29.68,East,82,0.0,0.0,40,0.00,,---,0.00,VWS V13.00,2013-06-18 07:31:00,
2013-06-17 23:36:00,62.8,38.1,29.68,South,178,0.0,0.0,40,0.00,,---,0.00,VWS V13.00,2013-06-18 07:36:00,
2013-06-17 23:41:00,62.4,38.4,29.68,NE,38,0.0,0.0,41,0.00,,---,0.00,VWS V13.00,2013-06-18 07:41:00,
2013-06-17 23:46:00,62.1,38.1,29.68,NNW,348,0.0,0.0,41,0.00,,---,0.00,VWS V13.00,2013-06-18 07:46:00,
2013-06-17 23:51:00,62.1,38.7,29.68,East,83,0.0,0.0,42,0.00,,---,0.00,VWS V13.00,2013-06-18 07:51:00,
2013-06-17 23:56:00,61.9,38.0,29.68,East,83,0.0,0.0,41,0.00,,---,0.00,VWS V13.00,2013-06-18 07:56:00,